When you browse on this site, cookies collect data to enhance your experience and personalize the content and advertising you see.
Visit our Privacy Policy to learn more. By continuing to use the site, you agree to this use of cookies and data.
  • In Deutschland
  • Länderverzeichnis
  • Für 7 Tage
  • Wassertemperatur
  • Satellitenkarten
  • Wetterkarte
  • Widgets
  • user-avatar
    Anmelden

    Stündliche Wetter Kury

    Heute, 23 Juli, Dienstag

    Zeit Temperatur Niederschläge Wind Luftdruck Luftfeuchtigkeit
    00:00 +16°C° 0 mm 1 m/S 755 mmHg 81%
    01:00 +16°C° 0 mm 1 m/S 755 mmHg 83%
    02:00 +15°C° 0 mm 1 m/S 755 mmHg 83%
    03:00 +15°C° 0 mm 1 m/S 755 mmHg 82%
    04:00 +15°C° 0 mm 1 m/S 755 mmHg 82%
    05:00 +16°C° 0 mm 1 m/S 755 mmHg 79%
    06:00 +17°C° 0 mm 2 m/S 755 mmHg 75%
    07:00 +18°C° 0 mm 2 m/S 755 mmHg 72%
    08:00 +18°C° 0 mm 3 m/S 755 mmHg 71%
    09:00 +18°C° 0 mm 3 m/S 755 mmHg 70%
    10:00 +18°C° 0 mm 3 m/S 755 mmHg 69%
    11:00 +19°C° 0 mm 4 m/S 754 mmHg 69%
    12:00 +19°C° 0 mm 4 m/S 754 mmHg 69%
    13:00 +20°C° 0 mm 4 m/S 754 mmHg 69%
    14:00 +20°C° 0 mm 4 m/S 754 mmHg 69%
    15:00 +21°C° 0 mm 4 m/S 754 mmHg 68%
    16:00 +21°C° 0 mm 4 m/S 754 mmHg 68%
    17:00 +20°C° 0 mm 4 m/S 754 mmHg 73%
    18:00 +19°C° 0 mm 3 m/S 753 mmHg 78%
    19:00 +18°C° 0 mm 3 m/S 753 mmHg 83%
    20:00 +17°C° 0 mm 3 m/S 754 mmHg 86%
    21:00 +16°C° 0 mm 2 m/S 754 mmHg 90%
    22:00 +15°C° 0 mm 2 m/S 754 mmHg 94%
    23:00 +15°C° 0 mm 2 m/S 754 mmHg 94%

    Morgen, 24 Juli, Mittwoch

    Zeit Temperatur Niederschläge Wind Luftdruck Luftfeuchtigkeit
    00:00 +15°C° 0 mm 2 m/S 754 mmHg 94%
    01:00 +15°C° 0 mm 1 m/S 754 mmHg 95%
    02:00 +14°C° 0 mm 1 m/S 754 mmHg 95%
    03:00 +14°C° 0 mm 1 m/S 754 mmHg 95%
    04:00 +14°C° 0 mm 1 m/S 754 mmHg 95%
    05:00 +16°C° 0 mm 1 m/S 754 mmHg 88%
    06:00 +18°C° 0 mm 1 m/S 754 mmHg 82%
    07:00 +20°C° 0 mm 1 m/S 754 mmHg 76%
    08:00 +20°C° 0 mm 2 m/S 754 mmHg 70%
    09:00 +23°C° 0 mm 2 m/S 754 mmHg 64%
    10:00 +24°C° 0 mm 2 m/S 754 mmHg 58%
    11:00 +25°C° 0 mm 2 m/S 754 mmHg 54%
    12:00 +26°C° 0 mm 2 m/S 754 mmHg 51%
    13:00 +27°C° 0 mm 2 m/S 754 mmHg 47%
    14:00 +27°C° 0 mm 3 m/S 754 mmHg 48%
    15:00 +27°C° 0 mm 3 m/S 754 mmHg 48%
    16:00 +27°C° 0 mm 3 m/S 753 mmHg 49%
    17:00 +26°C° 0 mm 2 m/S 753 mmHg 55%
    18:00 +24°C° 0 mm 2 m/S 753 mmHg 61%
    19:00 +23°C° 0 mm 1 m/S 753 mmHg 68%
    20:00 +22°C° 0 mm 1 m/S 754 mmHg 72%
    21:00 +21°C° 0 mm 1 m/S 754 mmHg 76%
    22:00 +20°C° 0 mm 1 m/S 754 mmHg 80%
    23:00 +19°C° 0 mm 1 m/S 754 mmHg 83%

    übermorgen, 25 Juli, Donnerstag

    Zeit Temperatur Niederschläge Wind Luftdruck Luftfeuchtigkeit
    00:00 +19°C° 0 mm 1 m/S 754 mmHg 85%
    01:00 +18°C° 0 mm 1 m/S 754 mmHg 88%
    02:00 +18°C° 0 mm 1 m/S 754 mmHg 89%
    03:00 +18°C° 0 mm 1 m/S 754 mmHg 90%
    04:00 +18°C° 0 mm 1 m/S 755 mmHg 91%
    05:00 +19°C° 0 mm 1 m/S 755 mmHg 86%
    06:00 +21°C° 0 mm 1 m/S 755 mmHg 81%
    07:00 +23°C° 0 mm 1 m/S 755 mmHg 75%
    08:00 +24°C° 0.1 mm 1 m/S 755 mmHg 69%
    09:00 +25°C° 0.1 mm 2 m/S 754 mmHg 63%
    10:00 +26°C° 0.1 mm 2 m/S 754 mmHg 58%
    11:00 +27°C° 0.1 mm 2 m/S 754 mmHg 54%
    12:00 +28°C° 0.1 mm 2 m/S 754 mmHg 51%
    13:00 +28°C° 0.1 mm 3 m/S 754 mmHg 48%
    14:00 +28°C° 0 mm 3 m/S 753 mmHg 48%
    15:00 +28°C° 0 mm 4 m/S 753 mmHg 48%
    16:00 +28°C° 0 mm 4 m/S 753 mmHg 48%
    17:00 +26°C° 0 mm 4 m/S 753 mmHg 57%
    18:00 +25°C° 0 mm 4 m/S 753 mmHg 66%
    19:00 +22°C° 0 mm 3 m/S 753 mmHg 75%
    20:00 +21°C° 0 mm 3 m/S 753 mmHg 78%
    21:00 +19°C° 0 mm 3 m/S 753 mmHg 81%
    22:00 +18°C° 0 mm 3 m/S 753 mmHg 84%
    23:00 +17°C° 0 mm 3 m/S 753 mmHg 87%

    26 Juli, Freitag

    Zeit Temperatur Niederschläge Wind Luftdruck Luftfeuchtigkeit
    00:00 +17°C° 0 mm 3 m/S 753 mmHg 90%
    01:00 +16°C° 0 mm 3 m/S 753 mmHg 93%
    02:00 +16°C° 0 mm 3 m/S 753 mmHg 94%
    03:00 +16°C° 0 mm 3 m/S 753 mmHg 94%
    04:00 +14°C° 0 mm 3 m/S 753 mmHg 95%
    05:00 +17°C° 0 mm 3 m/S 753 mmHg 89%
    06:00 +18°C° 0 mm 4 m/S 752 mmHg 83%
    07:00 +19°C° 0 mm 4 m/S 752 mmHg 77%
    08:00 +20°C° 0.1 mm 4 m/S 753 mmHg 73%
    09:00 +21°C° 0.1 mm 5 m/S 753 mmHg 70%
    10:00 +22°C° 0.1 mm 5 m/S 753 mmHg 67%
    11:00 +22°C° 0 mm 5 m/S 752 mmHg 65%
    12:00 +23°C° 0 mm 5 m/S 752 mmHg 64%
    13:00 +23°C° 0 mm 5 m/S 752 mmHg 62%
    14:00 +23°C° 0 mm 5 m/S 752 mmHg 63%
    15:00 +23°C° 0 mm 5 m/S 752 mmHg 64%
    16:00 +23°C° 0 mm 5 m/S 752 mmHg 66%
    17:00 +22°C° 0 mm 4 m/S 752 mmHg 71%
    18:00 +21°C° 0 mm 4 m/S 752 mmHg 76%
    19:00 +20°C° 0 mm 3 m/S 752 mmHg 82%
    20:00 +19°C° 0 mm 3 m/S 752 mmHg 85%
    21:00 +18°C° 0 mm 3 m/S 752 mmHg 89%
    22:00 +18°C° 0 mm 3 m/S 752 mmHg 93%
    23:00 +18°C° 0 mm 3 m/S 752 mmHg 93%

    27 Juli, Samstag

    Zeit Temperatur Niederschläge Wind Luftdruck Luftfeuchtigkeit
    00:00 +18°C° 0 mm 3 m/S 752 mmHg 92%
    01:00 +18°C° 0 mm 3 m/S 752 mmHg 92%
    02:00 +18°C° 0 mm 3 m/S 752 mmHg 94%
    03:00 +17°C° 0 mm 3 m/S 752 mmHg 95%
    04:00 +17°C° 0 mm 3 m/S 752 mmHg 96%
    05:00 +19°C° 0 mm 3 m/S 752 mmHg 91%
    06:00 +20°C° 0 mm 4 m/S 753 mmHg 85%
    07:00 +21°C° 0 mm 4 m/S 753 mmHg 80%
    08:00 +23°C° 0 mm 4 m/S 753 mmHg 72%
    09:00 +26°C° 0 mm 4 m/S 753 mmHg 65%
    10:00 +27°C° 0 mm 5 m/S 753 mmHg 58%
    11:00 +28°C° 0 mm 5 m/S 753 mmHg 56%
    12:00 +29°C° 0 mm 5 m/S 752 mmHg 54%
    13:00 +30°C° 0 mm 5 m/S 752 mmHg 51%
    14:00 +30°C° 0 mm 5 m/S 752 mmHg 51%
    15:00 +30°C° 0 mm 5 m/S 752 mmHg 51%
    16:00 +30°C° 0 mm 5 m/S 752 mmHg 50%
    17:00 +28°C° 0 mm 4 m/S 752 mmHg 57%
    18:00 +27°C° 0 mm 3 m/S 752 mmHg 63%
    19:00 +25°C° 0 mm 3 m/S 752 mmHg 69%
    20:00 +24°C° 0 mm 3 m/S 752 mmHg 75%
    21:00 +23°C° 0 mm 2 m/S 752 mmHg 80%
    22:00 +21°C° 0 mm 2 m/S 753 mmHg 85%
    23:00 +20°C° 0 mm 2 m/S 753 mmHg 87%

    28 Juli, Sonntag

    Zeit Temperatur Niederschläge Wind Luftdruck Luftfeuchtigkeit
    00:00 +20°C° 0 mm 2 m/S 753 mmHg 89%
    01:00 +20°C° 0 mm 2 m/S 753 mmHg 91%
    02:00 +19°C° 0 mm 2 m/S 753 mmHg 92%
    03:00 +19°C° 0 mm 2 m/S 753 mmHg 92%
    04:00 +19°C° 0 mm 2 m/S 753 mmHg 93%
    05:00 +20°C° 0 mm 2 m/S 753 mmHg 86%
    06:00 +23°C° 0 mm 2 m/S 753 mmHg 79%
    07:00 +25°C° 0 mm 2 m/S 753 mmHg 72%
    08:00 +26°C° 0 mm 3 m/S 753 mmHg 66%
    09:00 +28°C° 0 mm 3 m/S 753 mmHg 59%
    10:00 +29°C° 0 mm 3 m/S 753 mmHg 52%
    11:00 +30°C° 0 mm 3 m/S 753 mmHg 52%
    12:00 +30°C° 0 mm 3 m/S 752 mmHg 51%
    13:00 +30°C° 0 mm 3 m/S 752 mmHg 50%
    14:00 +30°C° 0 mm 3 m/S 752 mmHg 49%
    15:00 +30°C° 0 mm 3 m/S 752 mmHg 48%
    16:00 +31°C° 0 mm 3 m/S 752 mmHg 47%
    17:00 +29°C° 0 mm 3 m/S 752 mmHg 54%
    18:00 +28°C° 0 mm 2 m/S 752 mmHg 60%
    19:00 +26°C° 0 mm 2 m/S 752 mmHg 66%
    20:00 +25°C° 0 mm 2 m/S 752 mmHg 70%
    21:00 +24°C° 0 mm 2 m/S 752 mmHg 73%
    22:00 +23°C° 0 mm 2 m/S 753 mmHg 77%
    23:00 +23°C° 0 mm 2 m/S 753 mmHg 80%
    Mehr zeigen